TimeCDT,TemperatureF,Dew PointF,Humidity,Sea Level PressureIn,VisibilityMPH,Wind Direction,Wind SpeedMPH,Gust SpeedMPH,PrecipitationIn,Events,Conditions,WindDirDegrees,DateUTC
12:53 AM,73.9,72.0,93,30.04,10.0,Calm,Calm,-,N/A,,Scattered Clouds,0,2013-08-20 05:53:00
1:01 AM,73.4,71.6,94,30.05,10.0,Calm,Calm,-,N/A,,Mostly Cloudy,0,2013-08-20 06:01:00
1:13 AM,75.2,71.6,89,30.05,10.0,Calm,Calm,-,N/A,,Scattered Clouds,0,2013-08-20 06:13:00
1:53 AM,73.9,72.0,93,30.04,9.0,Calm,Calm,-,N/A,,Clear,0,2013-08-20 06:53:00
2:53 AM,73.9,72.0,93,30.03,9.0,ENE,3.5,-,N/A,,Clear,70,2013-08-20 07:53:00
3:42 AM,73.4,71.6,94,30.02,7.0,NNE,3.5,-,N/A,,Scattered Clouds,30,2013-08-20 08:42:00
3:53 AM,73.9,72.0,93,30.02,7.0,Calm,Calm,-,N/A,,Mostly Cloudy,0,2013-08-20 08:53:00
4:02 AM,73.4,73.4,100,30.03,1.8,Calm,Calm,-,N/A,,Overcast,0,2013-08-20 09:02:00
4:08 AM,73.4,73.4,100,30.02,0.5,Calm,Calm,-,N/A,Fog,Fog,0,2013-08-20 09:08:00
4:53 AM,73.9,73.0,97,30.01,0.5,Calm,Calm,-,N/A,Fog,Fog,0,2013-08-20 09:53:00
5:53 AM,73.9,72.0,93,30.02,0.8,Calm,Calm,-,N/A,,Mist,0,2013-08-20 10:53:00
6:00 AM,73.4,71.6,94,30.03,1.2,Calm,Calm,-,N/A,,Overcast,0,2013-08-20 11:00:00
6:24 AM,73.4,71.6,94,30.04,0.8,Calm,Calm,-,N/A,,Overcast,0,2013-08-20 11:24:00
6:34 AM,73.4,71.6,94,30.04,2.0,Calm,Calm,-,N/A,,Overcast,0,2013-08-20 11:34:00
6:42 AM,73.4,71.6,94,30.04,4.0,Calm,Calm,-,N/A,,Overcast,0,2013-08-20 11:42:00
6:53 AM,73.0,72.0,96,30.04,6.0,Calm,Calm,-,N/A,,Mostly Cloudy,0,2013-08-20 11:53:00
7:05 AM,73.4,71.6,94,30.06,1.8,East,3.5,-,N/A,,Mostly Cloudy,90,2013-08-20 12:05:00
7:09 AM,73.4,71.6,94,30.06,0.5,East,3.5,-,N/A,Fog,Fog,90,2013-08-20 12:09:00
7:30 AM,73.4,71.6,94,30.07,1.0,ENE,3.5,-,N/A,,Overcast,70,2013-08-20 12:30:00
7:37 AM,73.4,73.4,100,30.07,3.0,Calm,Calm,-,N/A,,Overcast,0,2013-08-20 12:37:00
7:53 AM,75.0,73.0,94,30.07,8.0,Calm,Calm,-,N/A,,Overcast,0,2013-08-20 12:53:00
8:26 AM,78.8,73.4,83,30.09,10.0,East,4.6,-,N/A,,Mostly Cloudy,100,2013-08-20 13:26:00
8:37 AM,80.6,73.4,79,30.09,10.0,ESE,5.8,-,N/A,,Mostly Cloudy,120,2013-08-20 13:37:00
8:53 AM,81.0,73.9,79,30.09,10.0,East,5.8,-,N/A,,Mostly Cloudy,100,2013-08-20 13:53:00
9:53 AM,81.0,73.9,79,30.10,10.0,ESE,5.8,-,N/A,,Mostly Cloudy,120,2013-08-20 14:53:00
10:53 AM,86.0,73.9,67,30.10,10.0,Variable,4.6,-,N/A,,Overcast,0,2013-08-20 15:53:00
11:53 AM,84.0,73.9,72,30.09,10.0,SW,11.5,-,N/A,Thunderstorm,Thunderstorm,220,2013-08-20 16:53:00
12:01 PM,82.4,73.4,74,30.09,10.0,SW,11.5,-,N/A,Thunderstorm,Thunderstorm,230,2013-08-20 17:01:00
12:17 PM,80.6,73.4,79,30.09,1.8,Variable,4.6,-,0.04,Rain-Thunderstorm,Light Thunderstorms and Rain,0,2013-08-20 17:17:00
12:42 PM,77.0,73.4,89,30.10,3.0,NNW,8.1,-,0.18,Rain-Thunderstorm,Light Thunderstorms and Rain,340,2013-08-20 17:42:00
12:53 PM,78.1,73.0,84,30.08,10.0,North,3.5,-,0.18,Thunderstorm,Thunderstorm,350,2013-08-20 17:53:00
1:53 PM,75.9,73.9,94,30.08,10.0,East,4.6,-,0.01,Thunderstorm,Mostly Cloudy,80,2013-08-20 18:53:00
2:00 PM,75.2,73.4,94,30.09,10.0,ENE,4.6,-,0.00,Rain,Light Rain,60,2013-08-20 19:00:00
2:13 PM,75.2,73.4,94,30.09,8.0,ENE,3.5,-,0.00,Rain-Thunderstorm,Light Rain,70,2013-08-20 19:13:00
2:53 PM,75.0,73.0,94,30.09,5.0,Calm,Calm,-,0.05,Rain-Thunderstorm,Rain,0,2013-08-20 19:53:00
3:31 PM,75.2,73.4,94,30.09,10.0,NNE,3.5,-,0.00,Rain,Light Rain,20,2013-08-20 20:31:00
3:46 PM,75.2,73.4,94,30.10,10.0,NE,3.5,-,0.00,Rain,Light Rain,50,2013-08-20 20:46:00
3:53 PM,75.9,73.0,91,30.09,10.0,NE,4.6,-,0.00,Rain-Thunderstorm,Light Rain,50,2013-08-20 20:53:00
4:03 PM,75.2,73.4,94,30.10,10.0,ENE,4.6,-,0.00,Rain-Thunderstorm,Light Rain,60,2013-08-20 21:03:00
4:11 PM,75.2,73.4,94,30.10,10.0,East,5.8,-,0.00,Rain,Light Rain,80,2013-08-20 21:11:00
4:27 PM,75.2,73.4,94,30.09,10.0,Calm,Calm,-,0.00,Rain,Light Rain,0,2013-08-20 21:27:00
4:53 PM,75.9,73.0,91,30.08,10.0,East,3.5,-,0.00,,Partly Cloudy,80,2013-08-20 21:53:00
5:30 PM,75.2,73.4,94,30.10,10.0,Calm,Calm,-,0.00,,Mostly Cloudy,0,2013-08-20 22:30:00
5:53 PM,75.9,73.0,91,30.08,10.0,Calm,Calm,-,0.00,,Mostly Cloudy,0,2013-08-20 22:53:00
6:13 PM,75.2,73.4,94,30.07,10.0,Calm,Calm,-,N/A,,Scattered Clouds,0,2013-08-20 23:13:00
6:53 PM,75.0,73.0,94,30.06,10.0,East,3.5,-,0.00,Rain,Light Rain,100,2013-08-20 23:53:00
7:40 PM,73.4,71.6,94,30.06,10.0,ENE,4.6,-,0.00,,Mostly Cloudy,60,2013-08-21 00:40:00
7:53 PM,73.9,72.0,93,30.06,10.0,ENE,4.6,-,0.00,,Mostly Cloudy,70,2013-08-21 00:53:00
8:43 PM,73.4,71.6,94,30.09,10.0,Calm,Calm,-,N/A,,Scattered Clouds,0,2013-08-21 01:43:00
8:53 PM,73.9,72.0,93,30.09,10.0,Calm,Calm,-,N/A,,Partly Cloudy,0,2013-08-21 01:53:00
9:53 PM,73.9,72.0,93,30.12,10.0,East,3.5,-,N/A,,Clear,80,2013-08-21 02:53:00
10:53 PM,73.9,71.1,91,30.13,10.0,Calm,Calm,-,N/A,,Partly Cloudy,0,2013-08-21 03:53:00
11:53 PM,73.9,71.1,91,30.12,10.0,Calm,Calm,-,N/A,,Clear,0,2013-08-21 04:53:00